Flag Weather past 2 weeks in Crailsheim, Baden-Württemberg, Germany

Now
41 °F

Scattered clouds.


Feels Like: 34 °F
Forecast: 41 / 54 °F
Wind: 12 mph from Southeast

Location: Niederstetten

Current Time: Nov 23, 2014 at 3:56:41 PM

Latest Report: Nov 23, 2014 at 3:20 PM


Visibility: N/A

Pressure: 30.15 "Hg

Humidity: 93%

Dew point: 39 °F

Location of CrailsheimLocation

Historic Weather in Crailsheim — Graph

°F

Crailsheim temperature yesterday

Maximum temperature yesterday: 50 °F (at 1:20 PM)
Minimum temperature yesterday: 34 °F (at 2:20 AM)
Average temperature yesterday: 40 °F

Past Weeks' High & Low Weather Summary

 TemperatureHumidityPressure
High54 °F (Nov 8, 2:20 PM)100% (Nov 9, 1:20 AM)30.30 "Hg (Nov 9, 1:20 AM)
Low30 °F (Nov 23, 6:50 AM)63% (Nov 8, 2:20 PM)29.47 "Hg (Nov 16, 3:20 AM)
Average43 °F95%29.88 "Hg
* Reported Nov 8 2:20 PM — Nov 23 2:20 PM, Crailsheim, Weather by CustomWeather, © 2014

Note: Actual official high and low records may vary slightly from our data, if they occured in-between our weather recording intervals... More about our weather records

Advertising

Crailsheim weather history for previous 24 hours

 ConditionsComfort  
Time TempWeatherWind HumidityBarometerVisibility
2:20 PM
Nov 23
43 °FScattered clouds.10 mph87%30.15 "HgN/A
1:20 PM45 °FPassing clouds.9 mph87%30.15 "HgN/A
12:20 PM46 °FPassing clouds.9 mph82%30.18 "Hg6 mi
11:20 AM43 °FPassing clouds.6 mph93%30.21 "Hg5 mi
10:50 AM41 °FFog.9 mph93%30.21 "Hg3 mi
10:20 AM39 °FFog.8 mph100%30.21 "Hg2 mi
9:20 AM36 °FFog.10 mph100%30.18 "Hg1 mi
8:20 AM36 °FFog.6 mph100%30.21 "Hg2 mi
7:20 AM34 °FFog.9 mph100%30.18 "Hg1 mi
6:50 AM30 °FIce fog.8 mph100%30.18 "Hg1 mi
6:20 AM32 °FIce fog.6 mph100%30.18 "Hg2 mi
5:20 AM37 °FChilly.3 mph100%30.18 "Hg4 mi
4:20 AM37 °FChilly.8 mph100%30.15 "Hg5 mi
3:20 AM37 °FPassing clouds.9 mph100%30.18 "Hg5 mi
2:20 AM37 °FPassing clouds.9 mph100%30.18 "Hg5 mi
1:20 AM37 °FPassing clouds.9 mph100%30.18 "Hg4 mi
12:20 AM37 °FPassing clouds.10 mph100%30.18 "Hg4 mi
11:20 PM
Nov 22
36 °FFog.7 mph93%30.18 "Hg1 mi
10:20 PM37 °FPassing clouds.6 mph100%30.18 "Hg4 mi
9:20 PM37 °FFog.9 mph100%30.18 "Hg3 mi
8:20 PM39 °FFog.8 mph100%30.15 "Hg2 mi
8:00 PM39 °FFog.10 mph100%30.15 "Hg1 mi
7:20 PM39 °FFog.9 mph100%30.15 "Hg0 mi
6:20 PM39 °FFog.5 mph100%30.18 "Hg0 mi
5:20 PM41 °FFog.7 mph93%30.18 "Hg1 mi
5:00 PM41 °FFog.7 mph93%30.18 "Hg2 mi
4:20 PM41 °FPartly sunny.7 mph100%30.15 "Hg4 mi
3:20 PM45 °FPartly sunny.7 mph93%30.15 "Hg5 mi
Weather by CustomWeather, © 2014

See weather overviewHow to use our weather pages